#timestamp,LO_Frequency,Hit 
1503687615.1,286047000.3,N
1503687616.0,286047000.3,N
1503687635.8,286047000.7,N
1503687655.7,286047002.8,N
1503687675.5,286047002.6,N
1503687695.3,286047001.9,N
1503687715.2,286047003.1,N
1503687735.9,286047007.6,P
1503687755.7,286047001.3,N
1503687775.6,286047005.9,N
1503687795.4,286047005.7,N
1503687815.2,286047004.3,N
1503687835.1,286047001.7,N
1503687836.0,286047001.7,N
1503687855.8,286047001.3,N
1503687875.6,286047000.6,N
1503687895.5,286047001.9,N
1503687915.3,286047003.4,N
1503687935.1,286047003.4,N
1503687955.9,286047000.2,N
1503687975.7,286046999.7,N
1503687995.5,286047002.1,N
1503688015.3,286047004.0,N
1503688035.2,286047004.3,N
1503688055.0,286047005.6,N
1503688055.9,286047005.6,N
1503688075.7,286047002.9,N
1503688095.6,286046999.7,N
1503688115.4,286047003.9,N
1503688135.2,286047004.5,N
1503688155.1,286047005.3,N
1503688156.0,286047005.3,N
1503688175.8,286047003.2,N
1503688195.6,286047004.6,N
1503688215.5,286047007.5,P
1503688235.3,286047001.8,N
1503688255.1,286047001.3,N
1503688275.9,286047005.8,N
1503688295.7,286047006.0,N
1503688315.5,286047002.6,N
1503688335.4,286047002.2,N
1503688355.2,286047006.0,N
1503688375.0,286047002.9,N
1503688375.9,286047002.9,N
1503688395.8,286047001.6,N
1503688415.6,286047002.3,N
1503688435.4,286047004.4,N
1503688455.3,286047003.6,N
1503688475.1,286047003.3,N
1503688476.0,286047003.3,N
1503688495.8,286047005.3,P
1503688515.7,286047001.4,N
1503688535.5,286047001.6,N
1503688555.3,286047002.6,N
1503688575.2,286047003.9,N
1503688595.9,286047000.3,N
1503688615.7,286046998.2,N
1503688635.6,286047002.1,N
1503688655.4,286047001.4,N
1503688675.2,286047000.7,N
1503688695.0,286047004.2,N
1503688696.0,286047004.2,N
1503688715.8,286047005.5,N
1503688735.6,286047002.9,N
1503688755.4,286047001.8,N
1503688775.3,286047003.4,N
1503688795.1,286047003.1,N
1503688815.8,286047003.6,N
1503688835.7,286047002.6,N
1503688855.5,286047001.3,N
1503688875.3,286047005.6,P
1503688895.2,286047000.5,N
1503688915.9,286047000.7,N
1503688935.7,286047001.6,N
1503688955.6,286047002.6,N
1503688975.4,286047002.5,N
1503688995.2,286047002.5,N
1503689015.1,286047002.6,N
1503689016.0,286047002.6,N
1503689035.8,286047005.1,P
1503689055.6,286047003.7,N
1503689075.5,286047002.1,N
1503689095.3,286047002.1,N
1503689115.1,286047003.8,P
1503689135.9,286047000.9,N
1503689155.7,286046997.9,N
1503689175.5,286046995.7,N
1503689195.4,286046993.3,N
1503689215.2,286046997.9,N
1503689235.0,286046995.4,N
1503689235.9,286046995.4,N
1503689255.8,286046993.5,N
1503689275.6,286046994.2,N
1503689295.4,286046995.6,N
1503689315.2,286046997.2,N
1503689335.1,286046996.8,N
1503689336.0,286046996.8,N
1503689355.8,286046997.2,N
1503689375.6,286046998.7,N
1503689395.5,286046997.5,N
1503689415.3,286046995.8,N
1503689435.1,286046997.3,N
1503689455.9,286046998.8,N
1503689475.7,286046996.5,N
1503689495.5,286046996.9,N
1503689515.4,286046999.1,N
1503689535.2,286047000.8,N
1503689555.0,286046999.1,N
1503689555.9,286046999.1,N
1503689575.8,286046998.9,N
1503689595.6,286047001.0,N
1503689615.4,286046998.4,N
1503689635.3,286046998.5,N
1503689655.1,286047000.1,N
1503689656.0,286047000.1,N
1503689675.8,286047002.6,N
1503689695.7,286047000.4,N
1503689715.5,286046998.8,N
1503689735.3,286046997.0,N
1503689755.2,286046999.2,N
1503689775.9,286046999.0,N
1503689795.7,286047002.2,N
1503689815.6,286047001.0,N
1503689835.4,286047000.6,N
1503689855.2,286047003.7,N
1503689875.1,286047005.5,N
1503689876.0,286047005.5,N
1503689895.8,286047004.0,N
1503689915.6,286047001.5,N
1503689935.4,286047003.4,N
1503689955.3,286047004.4,N
1503689975.1,286047003.9,N
1503689995.8,286047003.5,N
1503690015.7,286047005.7,N
1503690035.5,286047005.5,N
1503690055.3,286047005.0,N
1503690075.2,286047007.5,N
1503690095.9,286047005.6,N
1503690115.7,286047005.7,N
1503690135.6,286047013.6,P
1503690155.4,286047009.9,N
1503690175.2,286047010.6,N
1503690195.1,286047010.2,N
1503690196.0,286047010.2,N
1503690215.8,286047010.9,P
1503690235.6,286047003.9,P
1503690255.5,286047003.5,N
1503690275.3,286047005.8,N
1503690295.1,286047004.6,N
1503690315.9,286047007.6,N
1503690335.7,286047006.7,N
1503690355.5,286047004.9,N
1503690375.4,286047005.2,N
1503690395.2,286047005.9,N
1503690415.0,286047004.8,N
1503690415.9,286047004.8,N
1503690435.8,286047005.1,N
1503690455.6,286047007.6,P
1503690475.4,286047001.9,N
1503690495.3,286047002.3,N
1503690515.1,286047001.5,N
1503690516.0,286047001.5,N
1503690535.8,286047001.5,N
1503690555.7,286047002.0,N
1503690575.5,286047001.7,N
1503690595.3,286047001.8,N
1503690615.2,286047004.2,N
1503690635.9,286047004.1,N
1503690655.7,286047004.0,N
1503690675.5,286047003.8,N
1503690695.4,286047001.9,N
1503690715.2,286047002.2,N
1503690735.0,286047002.6,N
1503690735.9,286047002.6,N
1503690755.8,286046998.3,N
1503690775.6,286046995.1,N
1503690795.4,286046991.5,P
1503690815.3,286046982.0,P
1503690835.1,286046977.3,N
1503690855.8,286046983.0,N
1503690875.7,286046985.6,N
1503690895.5,286046988.1,N
1503690915.3,286046988.5,N
1503690935.2,286046990.7,N
1503690955.9,286046991.4,N
1503690975.7,286046991.1,N
1503690995.6,286046990.1,N
1503691015.4,286046991.9,N
1503691035.2,286046991.7,N
1503691055.0,286046994.7,N
1503691056.0,286046994.7,N
1503691075.8,286046996.4,N
1503691095.6,286046992.2,N
1503691115.4,286046993.0,N
1503691135.3,286046990.5,N
1503691155.1,286046992.6,N
1503691175.8,286046990.4,N
1503691195.7,286046989.7,N
